1296435033692,0.000142556
1296435093692,0.000140692
1296435153692,0.000142176
1296435213692,0.000142122
1296435273692,0.000142908
1296438633702,0.000142880
1296438693702,0.000141681
1296438753702,0.000142682
1296438813702,0.000141468
1296438873702,0.000143009
1296442233713,0.000142109
1296442293713,0.000142290
1296442353713,0.000141961
1296442413713,0.000142334
1296442473713,0.000142130
1296445833724,0.000142977
1296445893724,0.000142092
1296445953724,0.000142210
1296446013724,0.000140898
1296446073724,0.000141565
1296449433736,0.000141616
1296449493736,0.000142095
1296449553736,0.000141799
1296449613736,0.000141520
1296449673736,0.000142292
1296453033747,0.000141640
1296453093747,0.000142204
1296453153747,0.000141337
1296453213747,0.000141314
1296453273747,0.000140118
1296456633758,0.000141539
1296456693758,0.000140359
1296456753758,0.000139898
1296456813758,0.000141196
1296456873758,0.000140285
1296460233770,0.000139775
1296460293770,0.000140188
1296460353770,0.000139658
1296460413770,0.000141182
1296460473770,0.000138850
1296463833782,0.000140674
1296463893782,0.000140094
1296463953782,0.000139066
1296464013782,0.000141061
1296464073782,0.000139972
1296467433794,0.000139055
1296467493794,0.000140133
1296467553794,0.000140773
1296467613794,0.000139432
1296467673794,0.000139567
1296471033806,0.000138445
1296471093806,0.000139752
1296471153806,0.000139573
1296471213806,0.000139923
1296471273806,0.000140855
1296474633818,0.000140808
1296474693818,0.000140275
1296474753818,0.000139944
1296474813818,0.000141895
1296474873818,0.000140796
1296478233830,0.000141058
1296478293830,0.000141114
1296478353830,0.000140205
1296478413830,0.000139392
1296478473830,0.000140057
1296481833842,0.000140076
1296481893842,0.000141048
1296481953842,0.000140707
1296482013842,0.000139589
1296482073842,0.000139587
1296482133842,0.000140377
1296482193842,0.000139029
1296482253842,0.000139076
1296482313842,0.000139300
1296482373841,0.000139411
1296482433853,0.000140422
1296482493853,0.000139575
1296482553853,0.000139182
1296482613853,0.000140390
1296482673853,0.000139436
1296482733853,0.000138528
1296482793853,0.000139812
1296482853853,0.000138908
1296482913853,0.000139883
1296482973853,0.000139973
1296483033853,0.000139191
1296483093853,0.000140786
1296483153853,0.000140201
1296483213853,0.000138579
1296483273853,0.000139367
1296483333853,0.000139276
1296483393853,0.000140530
1296483453853,0.000140032
1296483513853,0.000140568
1296483573853,0.000140056
1296483633853,0.000139742
1296483693853,0.000139734
1296483753853,0.000140092
1296483813853,0.000138454
1296483873853,0.000138637
1296483933853,0.000140612
1296483993853,0.000138489
1296484053853,0.000139778
1296484113853,0.000139300
1296484173853,0.000139587
1296484233853,0.000139396
1296484293853,0.000138670
1296484353853,0.000138742
1296484413853,0.000138396
1296484473853,0.000139880
1296484533853,0.000138702
1296484593853,0.000139173
1296484653853,0.000139769
1296484713853,0.000138276
1296484773853,0.000139893
1296484833853,0.000140514
1296484893853,0.000140518
1296484953853,0.000140328
1296485013853,0.000139772
1296485073853,0.000140730
1296485133853,0.000140610
1296485193853,0.000139947
1296485253853,0.000139730
1296485313853,0.000140482
1296485373853,0.000139790
1296485433853,0.000140289
1296485493853,0.000139586
1296485553853,0.000139199
1296485613853,0.000139975
1296485673853,0.000139360
1296485733853,0.000140147
1296485793853,0.000138839
1296485853853,0.000139972
1296485913853,0.000139254
1296485973853,0.000141092
1296486033865,0.000139860
1296486093865,0.000139900
1296486153865,0.000141082
1296486213865,0.000144103
1296486273865,0.000139818
1296486333865,0.000138922
1296486393865,0.000138999
1296486453865,0.000139130
1296486513865,0.000140107
1296486573865,0.000139228
1296486633865,0.000139308
1296486693865,0.000139705
1296486753865,0.000138232
1296486813865,0.000138724
1296486873865,0.000139235
1296486933865,0.000138777
1296486993865,0.000138840
1296487053865,0.000138797
1296487113865,0.000140334
1296487173865,0.000140270
1296487233865,0.000139271
1296487293865,0.000139666
1296487353865,0.000139909
1296487413865,0.000141530
1296487473865,0.000139282
1296487533865,0.000139649
1296487593865,0.000139442
1296487653865,0.000139637
1296487713865,0.000139024
1296487773865,0.000139461
1296487833865,0.000139377
1296487893865,0.000139449
1296487953865,0.000140220
1296488013865,0.000140030
1296488073865,0.000139666
1296488133865,0.000139478
1296488193865,0.000139849
1296488253865,0.000139646
1296488313865,0.000139684
1296488373865,0.000139998
1296488433865,0.000140178
1296488493865,0.000139509
1296488553865,0.000138850
1296488613865,0.000139399
1296488673865,0.000139427
1296488733865,0.000139467
1296488793865,0.000139864
1296488853865,0.000139334
1296488913865,0.000139296
1296488973865,0.000139274
1296489033865,0.000139679
1296489093865,0.000140512
1296489153865,0.000139266
1296489213865,0.000140320
1296489273865,0.000139819
1296489333865,0.000140113
1296489393865,0.000141047
1296489453865,0.000141344
1296489513865,0.000140974
1296489573865,0.000140320
1296489633877,0.000140289
1296489693877,0.000139740
1296489753877,0.000139437
1296489813877,0.000139858
1296489873877,0.000141015
1296489933877,0.000140121
1296489993877,0.000139967
1296490053877,0.000140966
1296490113877,0.000141098
1296490173877,0.000139832
1296490233877,0.000139659
1296490293877,0.000141122
1296490353877,0.000140018
1296490413877,0.000140932
1296490473877,0.000140479
1296490533877,0.000139688
1296490593877,0.000139741
1296490653877,0.000139903
1296490713877,0.000140243
1296490773877,0.000140473
1296490833877,0.000139792
1296490893877,0.000140494
1296490953877,0.000140224
1296491013877,0.000139681
1296491073877,0.000138969
1296491133877,0.000140156
1296491193877,0.000141167
1296491253877,0.000140887
1296491313877,0.000140672
1296491373877,0.000140184
1296491433877,0.000140345
1296491493877,0.000139781
1296491553877,0.000140453
1296491613877,0.000139633
1296491673877,0.000141063
1296491733877,0.000140933
1296491793877,0.000140601
1296491853877,0.000140198
1296491913877,0.000139990
1296491973877,0.000140775
1296492033877,0.000140944
1296492093877,0.000140059
1296492153877,0.000140313
1296492213877,0.000140724
1296492273877,0.000141079
1296492333877,0.000140718
1296492393877,0.000139899
1296492453877,0.000139029
1296492513877,0.000140457
1296492573877,0.000139622
1296492633877,0.000139926
1296492693877,0.000139931
1296492753877,0.000140971
1296492813877,0.000141293
1296492873877,0.000141044
1296496233888,0.000140975
1296496293888,0.000139476
1296496353888,0.000139418
1296496413888,0.000140042
1296496473888,0.000140060
1296499833899,0.000140077
1296499893899,0.000139552
1296499953899,0.000140600
1296500013899,0.000140699
1296500073899,0.000141350
1296503433910,0.000140880
1296503493910,0.000140444
1296503553910,0.000141002
1296503613910,0.000141428
1296503673910,0.000141152
1296507033921,0.000140311
1296507093921,0.000140891
1296507153921,0.000141260
1296507213921,0.000141656
1296507273921,0.000141683
1296510633932,0.000144391
1296510693932,0.000142953
1296510753932,0.000142536
1296510813932,0.000142855
1296510873932,0.000142847
1296514233943,0.000141690
1296514293943,0.000141720
1296514353943,0.000140513
1296514413943,0.000142898
1296514473943,0.000143155
1296517833954,0.000141680
1296517893954,0.000142961
1296517953954,0.000141862
1296518013954,0.000141633
1296518073954,0.000142460
